Location: CCZU
(31.6840°N, 119.9550°E)
Time: 07:23:05
(UTC+08:00)

OTV 5 (USA 277) - Visible Passes

Search period start: 16 October 2019 00:00
Search period end: 26 October 2019 00:00
Orbit: 310 x 324 km, 54.5° (Epoch: 08 October)

Date Brightness Start Highest point End Pass type
(mag) Time Alt. Az. Time Alt. Az. Time Alt. Az.
19 Oct ? 05:18:02 10° N 05:19:43 15° NE 05:21:23 10° E visible
20 Oct ? 05:31:46 10° NNW 05:34:24 44° NE 05:37:01 10° ESE visible
22 Oct ? 04:29:11 24° NE 04:29:11 24° NE 04:31:29 10° ESE visible
23 Oct ? 04:44:10 62° SE 04:44:10 62° SE 04:46:29 10° SE visible
24 Oct ? 04:59:15 17° SSW 04:59:15 17° SSW 05:00:22 10° S visible
25 Oct ? 18:18:59 10° SSE 18:19:47 13° SE 18:19:47 13° SE visible
